Location: Alexandria
(38.8050°N, 77.0470°W)
Time: 23:15:09
(UTC-05:00)

Envisat - Pass Details

Date: 09 February 2018
Orbit: 764 x 766 km, 98.2° (Epoch: 23 February)

Event Time Altitude Azimuth Distance (km) Brightness Sun altitude
Exits shadow 19:40:25 26° 164° (SSE) 1,476 4.3 -24.1°
Maximum altitude 19:43:21 86° 77° (ENE) 772 2.8 -24.7°
Drops below altitude 10° 19:48:27 10° 348° (NNW) 2,309 5.6 -25.6°
Sets 19:50:46 0° 348° (NNW) 3,239 6.4 -26.1°
